DECAYED

FENGYUN 1C DEB, 36684 (Decayed)

Orbit data source: Space-Track

FENGYUN 1C DEB, 36684 was space debris in SSO originally from a launch on Mon, 10 May 1999 UTC launched from the Taiyaun Space Center, China (TSC). Fengyun 1C debris stems from the Chinese weather satellite Fengyun-1C, which was intentionally destroyed by a Chinese anti-satellite missile in 2007. This event dramatically increased the amount of space debris, with thousands of trackable fragments posing hazards to satellites and human spaceflight. The Fengyun 1C debris cloud has become a focal point in discussions about space sustainability and the need for international regulations to prevent the creation of new debris.

Not visible in the next 10 days
Identifier
36684, 1999-025DZE
Orbit
Decayed
Country
Flag of CNCN / PRC
Related business
Manufacturer
Unknown
Mission
Decayed spacecraft
Bus & Motor
Unknown
Mass
Unknown
Launch date (UTC)
1999-05-10 (27 years ago)
Launch vehicle
Unknown
Launch site
Taiyaun Space Center, China (TSC)
Object type
Payload
Rocket body
Debris
Shape & HBR
Unknown shape, 0.1 m
Radar Cross Section
Small (<0.1 m²)

Expand to show TLE details & history
Last TLE update: 4 months ago

TLE from 4 months ago
0 FENGYUN 1C DEB
1 36684U 99025DZE 26148.83115138  .00295973  00000-0  95651-2 0  9996
2 36684  99.4330 285.0258 0018995 269.5306  90.3752 15.30664831684258
Epoch: 2026-05-28T19:56Z
TLE epoch observation values (Epoch: 2026-05-28T19:56:51.479Z)
Latitude
0.00001°
Longitude
99.44106°
Altitude
476.976 km
Speed
7.627 km/s
True Right ascension
19h 00m 06s
True Declination
0° 00' 00"
Sunlit
Object was in full shadow at epoch
Visualization orbit readout
Latitude
Unknown
Longitude
Unknown
Altitude
Unknown
Speed
Unknown
Apparent Right ascension
Unknown
Apparent Declination
Unknown
Sunlit
N/A
Visualization observer readout
Local Sidereal Time
18:44:30
Azimuth
Unknown
Elevation
Unknown
Doppler factor
Unknown
Orbital elements
Apogee altitude
483.888 km
Perigee altitude
457.868 km
Semi-major axis
6,849.015 km
Eccentricity
0.0019
Inclination
99.433°
RAAN
285.0258°
Arg. of periapsis
269.5306°
True anomaly
90.59286°
Mean anomaly
90.3752°
Eccentric anomaly
90.48403°
Mean motion
3.82914 °/min
Orbital period
94.02 mins
BSTAR
0.0095651
Loading maneuver chart data...
Computing Atmospheric mass density...
Loading historical data...
Loading historical data...
Loading historical data...
Loading historical data...
Loading historical data...
Loading historical data...
Loading historical data...

Documentation

Showing up to 5 results
|